sat.trackr.live / text

‹ back to catalog

STARLINK-4443

NORAD 53508 · 2022-099AV

PAYLOAD ACTIVE UNKNOWN

§ Identity

Operator
Country
US
Launch date
2022-08-12
Launch site
AFWTR
Launch vehicle
Mass (kg)
RCS (m²)

Purposes: comms

External: N2YO · Heavens-Above · Gunter

§ Orbital elements

Epoch: 2026-05-25T01:07:16.015296Z

Period
95.64 min
Inclination
97.4495°
Eccentricity
0.0002007
Mean motion
15.05648814 rev/d
Perigee alt
548.1 km
Apogee alt
550.9 km
Semi-major
6,927.7 km
B*
1.4531e-5
RAAN
266.1296°
Arg perigee
142.0125°
Mean anomaly
218.1244°
Rev number
20,754

§ Raw data

STARLINK-44431 53508U 22099AV  26145.04671314  .00000151  00000+0  14531-4 0  99912 53508  97.4495 266.1296 0002007 142.0125 218.1244 15.05648814207549

JSON: /api/v1/satellites/53508 · /tle

For live sub-satellite position, see the globe view (requires WebGL).

§ Visibility from observer

Set your observer location to see the next 7 days of passes ≥ 10°. The values pass through the URL so the page stays shareable.

No JS? Fill the form by hand. The geolocation button needs JavaScript.